RESULTAT 33KM HOMME TRAIL DES CISTERCIENS 2017
                 
Classement Dossard Temps Vitesse Nom Prenom Pseudo Sexe sen/vet
1 437 2:27:18 13,4 Debaste Frédéric 0 Homme senior
2 547 2:36:19 12,7 Givron Régis 0 Homme senior
3 472 2:39:42 12,4 Leruth Pierre Polo Homme senior
4 483 2:41:14 12,3 FOLLET Jérémy MIMI Homme senior
5 531 2:41:56 12,2 Balestrie Benoit Ben Homme senior
6 506 2:46:40 11,9 Rombaux Didier 0 Homme veteran
7 444 2:53:14 11,4 Defrance Sébastien Sep Homme senior
8 532 2:55:47 11,3 Jobken Olivier 0 Homme senior
9 533 2:56:05 11,2 Chastanet Yoann Yoann Homme senior
10 417 2:57:15 11,2 Dewael Yannick Yann Homme veteran
11 449 2:57:22 11,2 Castelain Jean-Luc Le Grand Mendez Homme veteran
12 476 2:57:27 11,2 François Riguelle 0 Homme senior
13 447 2:57:59 11,1 Wattiaux Coli 0 Homme senior
14 515 2:59:42 11,0 bastien guillaume guigui Homme veteran
15 563 2:59:43 11,0 Bopue Didier 0 Homme veteran
16 537 2:59:52 11,0 Van Tuijcom Benjamin BenVT Homme senior
17 490 3:01:57 10,9 Lagae Alexis Alex Homme senior
18 453 3:01:59 10,9 Castel Benjamin Chti59 Homme senior
19 546 3:04:06 10,8 Ewbank Patrick La Clette Homme senior
20 538 3:04:26 10,7 ROTTIER Quentin 0 Homme veteran
21 479 3:04:41 10,7 Adrianssens Serge Born to Run Homme veteran
22 509 3:05:00 10,7 devuyst max max Homme senior
23 481 3:06:21 10,6 Van de Wal Luc 0 Homme veteran
24 474 3:07:24 10,6 Rojo Cebrecos Ignacio Nacho Homme veteran
25 441 3:08:07 10,5 pochet colin 0 Homme senior
26 521 3:08:25 10,5 HENRY VINCENT 0 Homme veteran
27 443 3:09:27 10,5 AUPAIX Pierre Bowie Homme veteran
28 424 3:09:28 10,5 Hottiaux Cédric 0 Homme senior
29 465 3:09:29 10,4 Van Camp Sébastien 0 Homme veteran
30 411 3:10:40 10,4 Morton Timothy 0 Homme veteran
31 504 3:11:53 10,3 Jacqmin Nathanaël 0 Homme veteran
32 559 3:12:10 10,3 Olmo Benjamin 0 Homme senior
33 543 3:13:46 10,2 giovannangelo alain nono Homme veteran
34 557 3:14:10 10,2 Garin Yves YvesG Homme veteran
35 450 3:14:42 10,2 Vanneste Kenny 0 Homme senior
36 446 3:14:54 10,2 SNEESSENS Alain 0 Homme veteran
37 463 3:16:16 10,1 Quétille Simon 0 Homme senior
38 470 3:16:17 10,1 Wallée Alain 0 Homme veteran
39 485 3:17:12 10,0 willems marc 0 Homme veteran
40 500 3:18:28 10,0 Landeloos Julien 0 Homme senior
41 493 3:18:29 10,0 Van der Kerken Filip osteofilip Homme veteran
42 451 3:18:41 10,0 Claridi Ciro 0 Homme senior
43 514 3:19:01 9,9 Hesbois Bernard Bernard Homme veteran
44 520 3:19:49 9,9 Fabrice Van Hove 0 Homme veteran
45 497 3:20:19 9,9 Daron Michael 0 Homme veteran
46 530 3:20:20 9,9 Boreux Thomas thboreux Homme senior
47 519 3:20:51 9,9 PROOST Wim 0 Homme veteran
48 467 3:22:25 9,8 Domange Nicolas Nicodo Homme senior
49 468 3:22:55 9,8 Nibelle Sebastien 0 Homme senior
50 566 3:23:54 9,7 Leupe Jean-Louis 0 Homme veteran
51 492 3:25:18 9,6 Lerat Pierre-Jean 0 Homme senior
52 564 3:25:33 9,6 Arnould Jerôme 0 Homme senior
53 562 3:25:33 9,6 Bisiau Philippe 0 Homme veteran
54 416 3:26:04 9,6 BARJASSE Pierre 0 Homme veteran
55 565 3:27:15 9,6 Mazuin Kevin 0 Homme senior
56 512 3:27:40 9,5 Defraene Arturo Arturo Homme veteran
57 507 3:27:42 9,5 Drouillon Philippe 0 Homme veteran
58 518 3:28:52 9,5 Peeters Dirk 0 Homme veteran
59 421 3:29:02 9,5 Marchal Frédéric 0 Homme senior
60 539 3:29:40 9,4 Urbain jérôme 0 Homme senior
61 439 3:29:47 9,4 Riestra José Manuel RJM Homme veteran
62 505 3:30:01 9,4 Constant Gilles 0 Homme senior
63 524 3:30:19 9,4 Mouchart Jean-Christophe JCM Homme veteran
64 452 3:32:21 9,3 Desmedt Jérôme 0 Homme senior
65 484 3:32:28 9,3 Harent Geoffroy Geogeo Homme senior
66 410 3:33:47 9,3 Randall Christopher Rch Homme veteran
67 427 3:35:21 9,2 Loir David 0 Homme senior
68 525 3:37:16 9,1 Peijmans David Pirlou Homme senior
69 544 3:37:26 9,1 Dawirs Robert Le Gecko Homme veteran
70 495 3:40:24 9,0 Van Pelt Jan 0 Homme veteran
71 445 3:40:30 9,0 Everaert Michael 0 Homme veteran
72 414 3:41:11 9,0 Boland Christian 0 Homme veteran
73 466 3:42:05 8,9 Luyckx Jacques running jack Homme veteran
74 517 3:42:06 8,9 Collège Jean-François Jeff Homme senior
75 403 3:42:50 8,9 Herremans Sven 0 Homme veteran
76 432 3:43:04 8,9 Sollas Nathan 0 Homme senior
77 516 3:44:44 8,8 Vandendorpe Luc vdd Homme veteran
78 460 3:45:12 8,8 CARLUCCIO Alfonso Alf Homme senior
79 473 3:45:51 8,8 CARPANTIER Jean-Jacques Jean-Jacques Homme veteran
80 433 3:46:18 8,7 Hocq Bernard 0 Homme veteran
81 542 3:46:19 8,7 Willaert Ruben 0 Homme senior
82 471 3:47:20 8,7 Vandam Jean Spot Homme veteran
83 508 3:48:24 8,7 nesi jean-pol 0 Homme veteran
84 462 3:49:31 8,6 Degroote Nicolaas 0 Homme veteran
85 511 3:51:52 8,5 Salvato Domenico MYSTÈRE Homme veteran
86 430 3:52:35 8,5 HOTAT Michel Levillersois Homme veteran
87 480 3:53:22 8,5 Verduyn Yvan 0 Homme veteran
88 434 3:55:25 8,4 Robin Alex 0 Homme veteran
89 491 3:55:52 8,4 Warin Didier Didier Homme veteran
90 529 3:57:40 8,3 Quentin PLAQUET 0 Homme veteran
91 478 3:58:40 8,3 Duquesne Paul Paulo Homme veteran
92 528 4:00:10 8,2 lacroix bernard le ber Homme veteran
93 561 4:02:37 8,2 Abraham Luc 0 Homme veteran
94 552 4:02:53 8,2 Goffinet Michel 0 Homme veteran
95 412 4:03:39 8,1 Vilain Patrick Pat Homme veteran
96 527 4:09:22 7,9 Devel Nicolas 0 Homme senior
97 477 4:10:44 7,9 peeters bernard pépé Homme veteran
98 458 4:14:33 7,8 Brassart Marcus Marcus Homme veteran
99 415 4:15:47 7,7 Van der Taelen Hans 0 Homme veteran
100 489 4:19:46 7,6 PIQUARD Ben BenPi4 Homme veteran
101 494 4:19:54 7,6 Edwards Lawrence FCT Homme veteran
102 459 4:20:01 7,6 Gerard Renaud Ezor Homme veteran
103 442 4:23:33 7,5 Fernandes Villela José JfV Homme veteran
104 423 4:26:45 7,4 Delbouille Thierry 0 Homme veteran
105 502 4:29:25 7,3 Leroy Julien OHMYJIM Homme senior
106 501 4:29:26 7,3 Mertens Quentin 0 Homme senior
107 407 4:29:41 7,3 Stuyckens  Nicolas Kolia Homme veteran
108 435 4:35:45 7,2 Van Erp Jean-Philippe 0 Homme veteran
ABANDON 429 #N/A #N/A Branle David 0 Homme veteran
ABANDON 454 #N/A #N/A Crusnaire Marc 0 Homme veteran
ABANDON 536 #N/A #N/A Josse Philippe 0 Homme veteran